{"data":{"norad_id":58778,"epoch":"2026-09-20T01:48:17.074368Z","epoch_age_seconds":189224,"freshness":"STALE","line1":"1 58778U 24011P   26263.07519762 -.00002291  00000+0 -56704-4 0  9990","line2":"2 58778  53.1601 187.7858 0001405  94.0706 266.0458 15.34384005150070","mean_motion":15.34384005,"eccentricity":0.0001405,"inclination_deg":53.1601,"raan_deg":187.7858,"arg_perigee_deg":94.0706,"mean_anomaly_deg":266.0458,"bstar":-5.6704e-5,"rev_number":15007,"period_min":93.848736385909,"perigee_km":461.78963639763,"apogee_km":463.71192586413,"semimajor_km":6840.8877811309,"source":"CELESTRAK","updated_at":"2026-09-21T09:00:33.974218Z"}}